Regional Weather Roundup
Issued by NWS

Home | Current Version | Previous Version | Graphics & Text | Print | Product List | Glossary On
Versions: 1 2 3 4 5 6 7 8 9 10 11 12 13 14 15 16 17 18 19 20 21 22 23 24 25 26 27 28 29 30 31 32 33 34 35 36 37 38 39 40 41 42 43 44 45 46 47 48 49 50
000
ASUS45 KTFX 240119
RWRMT
MONTANA HOURLY WEATHER ROUNDUP
NATIONAL WEATHER SERVICE GREAT FALLS MT
719 PM MDT WED JUL 23 2014

NOTE: "FAIR" INDICATES FEW OR NO CLOUDS BELOW 12000 FEET WITH NO
SIGNIFICANT WEATHER AND/OR OBSTRUCTIONS TO VISIBILITY.

* THESE STATIONS ARE NOT UNDER NWS QUALITY CONTROL. THEY DO NOT
   REPORT WEATHER SUCH AS PRECIPITATION OR FOG.

MTZ001>007-043-240200-
WEST OF THE DIVIDE
CITY           SKY/WX    TMP DP  RH WIND       PRES   REMARKS
KALISPELL      MOCLDY    79  55  44 NE7       29.80F
MISSOULA       MOCLDY    88  39  18 S21G39    29.84F
BUTTE          MOCLDY    82  41  23 E3        30.02F
MULLAN PASS    MOCLDY    55  52  90 NW10G25   30.09R
* ESSEX        N/A       78  52  40 S2         N/A
* LINCOLN      N/A       86  44  23 SE7G15     N/A
* LOOKOUT PASS N/A       62  54  75 NE12G23    N/A
* POLSON       N/A       83  54  37 NE3        N/A
* RONAN APT    MOCLDY    82  61  49 N5         N/A   HI  83
* SEELEY LAKE  N/A       82  42  24 NW9G14     N/A
* THOMP F APT  MOCLDY    85  27  12 S17G29     N/A
* YAAK HILL    N/A       81  50  34 E2         N/A
$$

MTZ008-052>055-240200-
SOUTHWEST MONTANA
CITY           SKY/WX    TMP DP  RH WIND       PRES   REMARKS
BOZEMAN        CLOUDY    90  48  24 CALM      29.96F
DILLON         PTCLDY    88  41  19 N/A       29.97F
W YELLOWSTONE  PTCLDY    79  32  18 SW3       30.19F
* THREE FORKS  PTCLDY    90  55  31 E5         N/A
* BOULDER HILL N/A       83  40  22 SW2        N/A
* MONIDA PASS  N/A       81  24  12 S23G32     N/A
* RAYNOLDS PAS N/A       79  61  54 S17G22     N/A
* WHITEHALL    N/A       89  49  25 E8         N/A
* WISE RIVER   N/A       81  41  24 W4G14      N/A
$$

MTZ009>010-012-014-046-048-049-054-240200-
EAST SLOPES AND CENTRAL MONTANA
CITY           SKY/WX    TMP DP  RH WIND       PRES   REMARKS
CUT BANK       CLEAR     86  54  33 NE14      29.91F
GREAT FALLS    CLEAR     91  46  21 CALM      29.90F
HELENA         CLEAR     90  50  25 E13       29.88F
MALMSTROM AFB  PTCLDY    91  43  19 S7        29.91F
* CONRAD       PTCLDY    88  48  25 SE6        N/A
* DEARBORN     N/A       90  46  22 SW8G14     N/A
* EAST GLACIER N/A       79  48  34 S6         N/A
* MONARCH      N/A       85  33  15 W9         N/A
* PENDROY      N/A       82  40  22 SW8        N/A
* ROGERS PASS  N/A       82  44  26 S2G12      N/A
* SAINT MARY   N/A       83  42  23 W6         N/A
* SWEET GRASS  N/A       85  51  31 SE4        N/A
* WHITE SULPH  N/A       85  46  26 S5         N/A
$$

MTZ011-013-016-021-035-040-045-047-050-051-240200-
NORTH CENTRAL MONTANA
CITY           SKY/WX    TMP DP  RH WIND       PRES   REMARKS
HAVRE          PTCLDY    93  52  25 S6        29.86F
LEWISTOWN      MOCLDY    90  54  29 SE7       29.98F
* FORT BENTON  PTCLDY    93  52  25 NE6       29.86F
* CHESTER      N/A       92  41  17 S2         N/A
* DENTON       N/A       91  52  26 E4G9       N/A
* JUDITH GAP   N/A       84  50  31 N/A        N/A
* LOMA         N/A       92  50  24 E5         N/A
$$

MTZ017>020-022>027-061-062-240200-
NORTHEAST MONTANA
CITY           SKY/WX    TMP DP  RH WIND       PRES   REMARKS
GLASGOW        CLOUDY    90  59  35 E17       29.92F
GLENDIVE       PTCLDY    88  61  40 E17       29.99F HI  88
JORDAN         CLOUDY    91  61  37 E14       29.91F
SIDNEY         PTCLDY    84  64  51 SE13      30.00F HI  85
WOLF POINT     MOCLDY    91  61  37 E16       29.94F
* BEAVER HILL  N/A       82  62  51 E23        N/A   HI  83
* CIRCLE       N/A       88  67  50 E11G17     N/A   HI  91
* LINDSAY DVD  N/A       84  64  51 E21G28     N/A   HI  85
* NAVAJO       N/A       81  63  54 SE16G23    N/A   HI  82
$$

MTZ028>042-056>058-240200-
SOUTHCENTRAL AND SOUTHEAST MONTANA
CITY           SKY/WX    TMP DP  RH WIND       PRES   REMARKS
BAKER          PTCLDY    81  63  54 SE24G33   30.03F HI  82
BILLINGS       PTCLDY    90  59  35 NE9       29.95F
LIVINGSTON     PTCLDY    91  45  20 E9        29.98F
MILES CITY     PTCLDY    91  64  41 NE16      29.90F HI  93
* LAUREL APT   PTCLDY    90  59  35 NE6        N/A
* ROUNDUP APT  PTCLDY    91  55  30 N/A        N/A
* ALZADA       N/A       88  65  47 E11        N/A   HI  90
* HYSHAM       N/A       94  59  31 N2G8       N/A
* LAME DEER    N/A       90  63  41 S6         N/A   HI  91
* REED POINT   N/A       94  50  22 E6         N/A
* ROSCOE HILL  N/A       85  51  31 NE9        N/A
$$

REGIONAL REPORTS...DAKOTAS
CITY           SKY/WX    TMP DP  RH WIND       PRES   REMARKS
WILLISTON      PTCLDY    84  61  46 SE16G24   30.04F HI  84
DICKINSON      PTCLDY    79  63  58 SE13      30.06F
CROSBY         CLOUDY    75  72  90 E12       30.08F
TIOGA          CLEAR     75  66  74 SE17G25   30.12F
WATFORD CITY   CLEAR     79  63  58 SE12G21   30.03F
BISMARCK       CLEAR     81  61  51 SE14      30.12F HI  82
GRAND FORKS    FAIR      73  57  57 N5        30.19F
FARGO          CLEAR     75  57  54 NE6       30.19F
BUFFALO SD     PTCLDY    82  63  53 SE17G28   29.96F HI  83
RAPID CITY     CLEAR     82  66  58 SE10      30.07F HI  84
$$

REGIONAL REPORTS...WYOMING/IDAHO/WASHINGTON
CITY           SKY/WX    TMP DP  RH WIND       PRES   REMARKS
GILLETTE       LGT RAIN  86  63  46 SE20G28   30.03S HI  87
SHERIDAN       MOCLDY    93  41  16 VRB6      29.96F
YELLOWSTONE LA PTCLDY    77  36  23 VRB5      30.32F
SALMON         MOCLDY    84  46  26 N8        29.87S
MULLAN PASS    MOCLDY    55  52  90 NW10G25   30.09S
SAND POINT     LGT RAIN  63  61  93 S8        29.97R
SPOKANE        MOCLDY    63  55  75 SW20G26   29.97R
$$

REGIONAL REPORTS...ALBERTA
CITY           SKY/WX    TMP DP  RH WIND       PRES   REMARKS
CALGARY        MOCLDY    77  52  42 SE12G18   29.92F
LETHBRIDGE     FAIR      79  63  58 NE9       29.89F
MEDICINE HAT   PTCLDY    88  52  29 W6        29.88F
EDMONTON       PTCLDY    75  59  58 S7        29.87F
WATERTON GATE  N/A       77  54  45 S1         N/A
CARDSTON       N/A       75  64  69 NE12       N/A
MILK RIVER     N/A       84  52  33 SE10       N/A
$$

REGIONAL REPORTS...SASKATCHEWAN
CITY           SKY/WX    TMP DP  RH WIND       PRES   REMARKS
SWIFT CURRENT  CLEAR     75  63  66 E17G29    30.00F
MOOSE JAW      MOCLDY   N/A N/A N/A E15        N/A
REGINA         N/A       73  63  71 SE23      30.07F
VAL MARIE      N/A       86  57  37 SE16G23    N/A
ASSINIBOIA     N/A       77  66  69 E17G23     N/A
CORONACH       N/A       82  61  49 E14G22     N/A   HI  83

$$



USA.gov is the U.S. government's official web portal to all federal, state and local government web resources and services.